Location: Bun Machan
(52.1403°N, 7.3744°W)
Time: 08:35:52
(UTC+00:00)

Helios 1B rocket - Pass Details

Date: 14 July 2020
Orbit: 574 x 584 km, 98.1° (Epoch: 04 August)

Event Time Altitude Azimuth Distance (km) Brightness Sun altitude
Rises 02:00:25 0° 8° (N) 2,813 7.7 -13.9°
Reaches altitude 10° 02:02:42 10° 360° (N) 1,907 6.2 -13.8°
Maximum altitude 02:06:28 35° 294° (WNW) 944 3.5 -13.6°
Enters shadow 02:09:09 17° 236° (WSW) 1,508 4.1 -13.4°
